sat.trackr.live / text

‹ back to catalog

KUIPER-00088

NORAD 65133 · 2025-171B

PAYLOAD ACTIVE UNKNOWN

§ Identity

Operator
Country
US
Launch date
2025-08-11
Launch site
AFETR
Launch vehicle
Mass (kg)
RCS (m²)

External: N2YO · Heavens-Above · Gunter

§ Orbital elements

Epoch: 2026-09-21T19:26:00.585600Z

Period
97.30 min
Inclination
51.9006°
Eccentricity
0.0000437
Mean motion
14.79938086 rev/d
Perigee alt
629.2 km
Apogee alt
629.8 km
Semi-major
7,007.7 km
B*
3.2417e-4
RAAN
18.3285°
Arg perigee
107.2335°
Mean anomaly
252.8676°
Rev number
6,183

§ Raw data

KUIPER-000881 65133U 25171B   26264.80972900  .00002251  00000+0  32417-3 0  99982 65133  51.9006  18.3285 0000437 107.2335 252.8676 14.79938086 61832

JSON: /api/v1/satellites/65133 · /tle

For live sub-satellite position, see the globe view (requires WebGL).

§ Visibility from observer

Set your observer location to see the next 7 days of passes ≥ 10°. The values pass through the URL so the page stays shareable.

No JS? Fill the form by hand. The geolocation button needs JavaScript.